Weather Roundup
Issued by NWS Springfield, MO

Home | Current Version | Previous Version | Text Only | Print | Product List | Glossary On
Versions: 1 2 3 4 5 6 7 8 9 10 11 12 13 14 15 16 17 18 19 20 21 22 23 24 25 26 27 28 29 30 31 32 33 34 35 36 37 38 39 40 41 42 43 44 45 46 47 48 49 50
000
NZUS99 KSGF 270759
HRRSGF

HOURLY WEATHER
NATIONAL WEATHER SERVICE SPRINGFIELD MO
200 AM CST THU NOV 27 2014

......SGF CWA......

CITY           SKY/WX    TMP DP  RH WIND       PRES   REMARKS
SPRINGFIELD    CLOUDY    31  24  75 NW18      30.37R WCI  19
JOPLIN         CLEAR     28  22  78 N9        30.44R WCI  19
WEST PLAINS    CLOUDY    32  25  75 NW16G26   30.31R WCI  21
ROLLA          CLOUDY    31  29  92 NW14      30.30R FOG     WCI  21
OSAGE BEACH    CLOUDY    32  27  80 NW6       30.37R WCI  26

......SURROUNDING SGF CWA......

CITY           SKY/WX    TMP DP  RH WIND       PRES   REMARKS
CHANUTE        CLEAR     25  20  81 N9        30.45F WCI  15
PARSONS        CLEAR     27  21  78 N10       30.46R WCI  17
COFFEYVILLE    CLEAR     27  21  78 N10       30.47R WCI  17
EMPORIA        CLEAR     20  17  88 N5        30.46F WCI  13
SILOAM SPRINGS CLOUDY    28  19  69 N10       30.43R WCI  19
HARRISON AR    CLOUDY    32  24  72 NW14G22   30.35R WCI  22
NEAR YELLVILLE CLOUDY    36  21  55 NW9       30.37R WCI  29

......KANSAS AND MISSOURI......

CITY           SKY/WX    TMP DP  RH WIND       PRES   REMARKS
KANSAS CTY INT CLOUDY    26  21  81 NW12      30.46R WCI  16
DOWNTOWN KC    CLOUDY    29  21  72 NW14G21   30.47R WCI  18
COLUMBIA       CLOUDY    32  28  85 NW13      30.35R WCI  22
SEDALIA        CLOUDY    31  25  78 NW16G22   30.41R WCI  20
ST JOSEPH      CLOUDY    26  20  77 NW12      30.48R WCI  16
ST LOUIS       LGT SNOW  32  27  81 N13       30.31R FOG     WCI  22
SPIRIT OF STL  CLOUDY    31  28  89 N8        30.31R WCI  23
KIRKSVILLE     CLOUDY    30  27  88 NW10      30.36R FOG     WCI  21
WICHITA        PTCLDY    29  18  63 N10       30.45R WCI  20
TOPEKA         CLOUDY    27  20  75 NW7       30.49S WCI  19
OLATHE         CLOUDY    27  21  78 NW12G21   30.45R WCI  17

......TENNESSEE......

CITY           SKY/WX    TMP DP  RH WIND       PRES   REMARKS
MEMPHIS        PTCLDY    41  28  60 NW16G23   30.26R
NASHVILLE      CLOUDY    40  34  79 NW8       30.13R WCI  34

......ARKANSAS.......

CITY           SKY/WX    TMP DP  RH WIND       PRES   REMARKS
FAYETTEVILLE   CLOUDY    30  24  78 NW8       30.41R WCI  22
FT SMITH       CLEAR     36  24  62 N12       30.41R WCI  28
LITTLE ROCK    CLEAR     43  25  49 NW10      30.34R

......OKLAHOMA.......

CITY           SKY/WX    TMP DP  RH WIND       PRES   REMARKS
TULSA          PTCLDY    32  23  69 N8        30.46F WCI  25
PONCA CITY     CLEAR     29  22  75 W3        30.48R
MCALESTER      PTCLDY    37  26  64 N8        30.45R WCI  31
OKLAHOMA CITY  PTCLDY    33  23  66 NW6       30.48R WCI  28

......IOWA............

CITY           SKY/WX    TMP DP  RH WIND       PRES   REMARKS
DES MOINES     FLURRIES  20  15  81 NW22      30.42R WCI   3
QUAD CITIES    MOCLDY    24  19  81 NW9       30.31R WCI  14

......ILLINOIS........

CITY           SKY/WX    TMP DP  RH WIND       PRES   REMARKS
QUINCY         CLOUDY    27  23  85 N10       30.33R FOG     WCI  17
CHICAGO        CLOUDY    25  20  81 NW13      30.19R WCI  14




USA.gov is the U.S. government's official web portal to all federal, state and local government web resources and services.